Location: Grasslands National Park East Block
(49.0708°N, 106.5295°W)
Time: 19:35:01
(UTC-06:00)

Daily predictions for brighter satellites

Satellite Brightness Start Highest point End
(mag) Time Altitude Azimuth Time Altitude Azimuth Time Altitude Azimuth
Timation 2 Rocket 4.1 19:51:22 10° NNW 19:57:43 62° NE 20:03:47 10° SE
Okean 3 Rocket 3.5 19:55:03 10° N 19:59:29 75° E 20:03:54 10° SSE
Cosmos 1844 Rocket 3.6 19:54:14 10° SW 19:59:47 55° NW 20:05:19 10° NNE
Cosmos 990 Rocket 4.2 19:55:29 10° SSW 20:00:45 80° WNW 20:06:01 10° NNE
CZ-2D R/B 3.7 19:58:08 10° SE 20:01:50 43° ENE 20:05:33 10° N
Cosmos 1805 3.4 20:01:12 10° S 20:04:58 50° E 20:08:47 10° NNE
Cosmos 1867 4.1 20:00:09 10° S 20:05:10 39° ESE 20:10:13 10° NE
FENGYUN 3A 3.8 20:02:38 10° SSE 20:08:02 83° WSW 20:13:28 10° NNW
Cosmos 1833 Rocket 2.7 20:02:38 10° NNW 20:08:17 75° ENE 20:13:54 10° SE
Helios 1A 3.6 20:05:14 10° SE 20:09:04 37° ENE 20:12:58 10° N
Cosmos 1812 Rocket 4.2 20:04:52 10° SSW 20:09:13 63° WNW 20:13:35 10° N
Cosmos 1934 Rocket 4.1 20:03:59 10° S 20:10:06 85° W 20:16:13 10° N
ALOS 2.6 20:06:22 10° S 20:11:03 73° WSW 20:15:44 10° NNW
Meteor 1-21 Rocket 4.3 20:06:11 10° N 20:12:00 67° ENE 20:17:53 10° SSE
USA 267 4.0 20:07:36 10° ENE 20:13:45 45° N 20:19:54 10° WNW
Envisat 3.7 20:10:14 10° SE 20:14:46 34° ENE 20:19:20 10° N
Cosmos 1733 4.1 20:17:53 10° SSE 20:21:14 28° E 20:24:36 10° NNE
Cosmos 1766 Rocket 3.6 20:17:13 10° N 20:21:42 62° ENE 20:26:08 10° SSE
Cosmos 2278 Rocket 2.4 20:16:41 10° SSW 20:22:22 79° WNW 20:28:05 10° NNE
Cosmos 1470 3.5 20:19:38 10° SSE 20:23:10 32° E 20:26:43 10° NNE
Cosmos 1048 Rocket 4.1 20:18:26 10° NNW 20:23:35 81° WSW 20:28:42 10° SSE
Cosmos 482 Debris 3.0 20:22:27 10° WNW 20:24:18 47° SSW 20:25:30 17° SE
ATLAS 5 CENTAUR R/B 2.4 20:20:07 10° S 20:24:23 33° ESE 20:28:58 10° NE
SeaSat 1 3.1 20:19:45 10° SSE 20:24:36 59° WSW 20:29:31 10° NW
Cosmos 1125 Rocket 3.5 20:19:49 10° S 20:24:56 62° ESE 20:30:07 10° NNE
Spot 1 4.5 20:20:39 10° SSE 20:25:20 59° ENE 20:30:18 10° N
ERS-1 Rocket 4.1 20:23:15 11° ESE 20:27:07 26° ENE 20:31:15 10° N
Cosmos-2242 3.4 20:23:24 10° SSE 20:27:20 38° E 20:31:19 10° NNE
Cosmos 1356 Rocket 4.5 20:24:13 10° N 20:27:43 26° ENE 20:30:26 14° ESE
GP-B 3.2 20:27:08 10° SSE 20:31:27 54° E 20:35:48 10° N
USA 186 0.8 20:29:43 10° SSE 20:31:53 61° ENE 20:34:06 10° N
H-2A R/B 4.1 20:31:35 10° ENE 20:33:26 12° NE 20:35:17 10° NNE
Cosmos 1340 Rocket 2.9 20:29:42 10° N 20:33:41 54° ENE 20:37:36 10° SSE
Cosmos 2344 3.9 20:26:03 10° SW 20:33:46 82° NW 20:43:00 10° NE
CZ-4B DEB 3.1 20:33:42 12° SE 20:36:21 43° ENE 20:39:20 10° N
H-2A R/B 3.5 20:32:39 10° S 20:36:30 56° W 20:40:25 10° NNW
BREEZE-M DEB (TANK) 1.7 20:34:18 10° W 20:36:37 84° SSW 20:38:18 20° ESE
Cosmos 2297 3.7 20:35:01 10° SSW 20:40:43 73° ESE 20:46:29 10° NNE
Resurs 01 Rocket 2.4 20:36:41 10° S 20:41:01 55° W 20:45:24 10° NNW
Cosmos 2016 Rocket 4.4 20:37:23 10° SSE 20:43:01 38° E 20:48:37 10° NNE
ISS -2.7 20:41:48 10° SSW 20:44:34 26° SE 20:45:26 23° ESE
Cosmos 2221 4.5 20:45:54 13° ENE 20:45:54 13° ENE 20:47:21 10° NE
Meteor 1-29 3.5 20:42:31 10° NNE 20:45:47 37° E 20:49:02 10° SSE
Cosmos 2082 Rocket 3.0 20:43:04 10° NW 20:48:36 53° WSW 20:54:04 10° S
Cosmos 1743 Rocket 3.6 20:48:25 10° N 20:52:51 63° ENE 20:56:52 12° SSE
Timation 1 Rocket 4.5 20:47:11 10° SSW 20:53:12 81° WNW 20:59:17 10° NNE
Cosmos 1500 Rocket 3.8 20:49:35 10° N 20:53:47 47° ENE 20:56:35 19° SE
SAR-Lupe-4 3.9 20:51:55 10° S 20:55:29 66° WSW 20:59:04 10° NNW
COSMOS 2487 4.3 20:52:19 10° NW 20:55:33 32° WSW 20:58:46 10° SSW
SL-14 R/B 3.6 20:52:34 10° N 20:56:19 45° ENE 20:58:17 24° SE
ARGOS 4.3 20:55:16 19° E 20:57:35 26° ENE 21:01:56 10° N
YAOGAN 6 3.3 20:58:47 27° ESE 21:00:03 36° ENE 21:03:31 10° N
Meteor 1-11 4.4 20:54:50 10° N 21:00:17 52° ENE 21:04:09 19° SE
Cosmos 2058 3.7 20:56:33 10° N 21:00:20 32° ENE 21:01:37 27° ESE
Cosmos 2100 Rocket 4.0 20:55:35 10° S 21:01:54 76° E 21:08:18 10° NNE
Cosmos 1271 Rocket 2.7 20:58:10 10° S 21:02:12 83° E 21:06:15 10° NNE
Cosmos 1328 3.8 20:59:44 10° N 21:03:41 62° ENE 21:06:02 23° SSE
Cosmos 1674 3.8 21:01:42 10° NNW 21:05:19 44° W 21:08:57 10° SSW
Cosmos 2251 Rocket 3.5 21:00:04 10° NNW 21:05:25 76° ENE 21:09:13 20° SSE
Tsikada Rocket 4.2 21:04:02 10° N 21:10:06 52° ENE 21:14:02 22° SE
Cosmos 1953 3.8 21:06:40 10° SW 21:10:31 40° WNW 21:14:22 10° N
Cosmos 372 Rocket 4.2 21:07:34 10° SSW 21:12:41 72° WNW 21:17:53 10° NNE
BREEZE-M DEB (TANK) 4.1 21:11:19 10° SSW 21:15:21 42° SE 21:28:33 10° ENE
Lacrosse 5 2.7 21:11:37 10° W 21:16:33 49° NNW 21:21:29 10° NE
Cosmos 2151 3.0 21:12:45 10° N 21:16:59 59° ENE 21:18:38 34° SE
Helios 1B rocket 2.5 21:14:06 10° NNE 21:18:16 77° WNW 21:22:22 10° SSW
USA 215 3.8 21:15:13 10° ENE 21:21:03 34° SE 21:26:52 10° SSW
Cosmos 1939 Rocket 3.1 21:18:51 18° S 21:21:50 75° WSW 21:26:01 10° NNW
SPOT 5 3.5 21:22:08 32° ESE 21:24:01 43° ENE 21:29:01 10° N
BREEZE-M DEB 3.9 21:21:35 10° W 21:25:23 83° N 21:25:36 75° ENE
Cosmos 1802 Rocket 3.9 21:19:37 10° S 21:25:46 89° E 21:32:01 10° N
Cosmos 1703 3.7 21:23:15 10° N 21:27:00 40° ENE 21:27:04 40° ENE
TIMED 4.4 21:23:45 10° SSW 21:28:07 81° ESE 21:32:32 10° NNE
Lacrosse 5 rocket 3.1 21:25:02 10° WNW 21:28:09 23° SW 21:29:53 17° SSW
Cosmos 389 Rocket 2.6 21:29:07 51° ENE 21:29:07 51° ENE 21:32:12 10° NNE
Cosmos 1626 2.9 21:26:23 10° N 21:29:33 36° ENE 21:29:33 36° ENE
Terra 3.5 21:31:05 18° ENE 21:31:14 18° ENE 21:34:22 10° NNE
Cosmos 1842 Rocket 3.4 21:27:30 13° S 21:31:26 82° E 21:35:51 10° NNE
CZ-3B DEB 2.7 21:23:21 10° W 21:31:27 54° NNW 21:34:17 19° NE
Cosmos 494 Rocket 4.3 21:30:58 10° NNW 21:36:01 61° WSW 21:39:05 23° S
Cosmos 1816 Rocket 4.4 21:32:56 10° N 21:39:07 69° ENE 21:42:05 33° SSE
Cosmos 1184 Rocket 4.3 21:37:02 10° NNW 21:40:11 36° W 21:41:45 23° SSW
Cosmos 2369 Rocket 2.6 21:43:24 40° E 21:43:24 40° E 21:48:11 10° NE
Cosmos 2061 Rocket 4.4 21:36:57 10° SSW 21:43:18 66° WNW 21:49:45 10° N
MetOp-B 4.0 21:44:08 41° SSE 21:46:01 75° ENE 21:51:24 10° NNW
USA 245 4.4 21:47:22 42° SE 21:49:22 66° ENE 21:55:42 10° N
Envisat 4.3 21:49:03 10° SSW 21:53:45 37° W 21:58:29 10° NNW
Cosmos 2227 Rocket 4.4 21:51:10 10° N 21:53:56 14° NNE 21:56:18 11° NE
USA 267 3.4 21:53:31 37° E 21:56:18 69° NNE 22:02:48 10° NW
Cosmos 2233 Rocket 4.0 21:54:45 44° SE 21:56:28 59° E 22:02:30 10° NNE
YAOGAN 11 4.2 21:57:37 56° S 21:58:32 80° WSW 22:03:07 10° NNW
Cosmos 1864 Rocket 4.5 21:56:05 13° S 22:01:55 85° W 22:08:15 10° N
Sich 1 3.6 21:58:36 10° N 22:02:16 47° NE 22:02:16 47° NE
NOAA 11 4.2 22:01:17 45° S 22:03:03 84° WSW 22:08:37 10° NNW
ERS-1 Rocket 3.6 22:03:15 28° SSW 22:05:38 51° W 22:10:34 10° NNW
Cosmos 1943 Rocket 3.9 22:10:18 18° NE 22:10:18 18° NE 22:12:00 10° NE
Cosmos 1666 Rocket 4.0 22:04:20 10° N 22:07:51 50° NNE 22:07:51 50° NNE
ATLAS 5 CENTAUR R/B 2.8 22:04:10 10° WSW 22:08:52 49° NW 22:14:05 10° NE
Cosmos 1633 Rocket 3.7 22:06:15 10° N 22:09:44 45° NE 22:09:44 45° NE
H-2A R/B 2.1 22:11:38 60° E 22:11:52 60° ENE 22:17:04 10° N
ISS -1.1 22:17:32 10° WSW 22:18:08 15° WSW 22:18:08 15° WSW
Cosmos 2221 2.8 22:22:43 67° NNW 22:22:43 67° NNW 22:26:42 10° N
CZ-4C R/B 3.4 22:33:39 31° NE 22:33:39 31° NE 22:36:54 10° NE
H-2A R/B 3.1 22:34:14 38° N 22:34:14 38° N 22:36:54 10° N
Cosmos 1805 Rocket 4.3 22:31:10 10° NNW 22:35:13 50° W 22:35:13 50° W
Cosmos 2219 3.8 22:30:59 10° NNW 22:36:09 43° NE 22:36:09 43° NE
ARGOS 3.5 22:36:47 52° SW 22:37:29 57° W 22:42:47 10° NNW
Cosmos 1464 Rocket 4.1 22:45:57 58° ENE 22:45:57 58° ENE 22:51:24 10° NNE
ATLAS 3B R/B 4.4 22:54:09 19° ENE 22:54:09 19° ENE 22:56:11 10° NE
Landsat 7 4.5 22:54:12 53° NW 22:54:12 53° NW 22:57:57 10° NNW
Nimbus 7 Rocket 4.5 22:49:28 10° NNE 22:55:19 72° WNW 22:55:58 65° WSW
SPOT 1/Viking Rocket 4.2 22:56:05 49° W 22:56:05 49° W 23:01:08 10° NNW
Meteor 2-12 Rocket 4.3 22:57:18 82° N 22:57:18 82° N 23:03:06 10° N
Cosmos 407 Rocket 4.0 22:52:59 10° NNW 22:57:13 56° N 22:57:13 56° N
Lacrosse 5 3.3 22:55:48 10° WNW 23:00:24 33° N 23:01:14 31° NNE
SPOT 5 4.4 23:01:22 31° WSW 23:02:10 32° W 23:06:55 10° NNW
Cosmos 2034 Rocket 4.4 23:04:12 52° NE 23:04:12 52° NE 23:09:06 10° NNE
USA 215 3.1 22:57:59 10° NE 23:04:33 88° NNW 23:11:06 10° WSW
Terra 2.9 23:09:58 43° NNW 23:09:58 43° NNW 23:13:14 10° NNW
Cosmos 2297 Rocket 3.7 23:08:08 10° NNW 23:12:32 27° NE 23:12:32 27° NE
Cosmos 2369 Rocket 3.3 23:24:59 30° W 23:27:00 40° NW 23:32:17 10° NNE
Cosmos 1092 Rocket 4.4 23:23:59 10° N 23:28:53 55° NNE 23:28:53 55° NNE
USA 267 3.9 23:40:51 44° W 23:40:51 44° W 23:45:51 10° WNW
Cosmos 2227 Rocket 3.3 23:34:05 10° NNW 23:38:07 38° NNE 23:38:07 38° NNE
CZ-3B DEB 4.1 23:39:13 10° WNW 23:40:51 17° NW 23:40:51 17° NW
Nadezhda 4 Rocket 4.5 23:41:43 10° NNW 23:46:35 54° NW 23:46:35 54° NW
Cosmos 1943 Rocket 3.3 23:51:45 41° NNW 23:51:45 41° NNW 23:56:03 10° NNE
H-2A R/B 4.0 23:52:16 22° W 23:52:16 22° W 23:55:47 10° NW
ATLAS 5 CENTAUR R/B 4.4 23:51:00 10° WNW 23:54:52 21° NNW 23:59:02 10° NE
